[keps] orb08171.amsat

Ray Hoad r.hoad at att.net
Thu Jun 19 19:41:22 PDT 2008


SB KEPS @ AMSAT  $ORB08171.O
Orbital Elements  08171.OSCAR

HR AMSAT ORBITAL ELEMENTS FOR OSCAR SATELLITES
FROM WA5QGD FORT WORTH,TX June 19, 2008
Send Subscribe/unsubscribe to KEPS at 
http://www.amsat.org/mailman/listinfo/keps
BID: ORB08171.O
TO ALL RADIO AMATEURS BT

Satellite: AO-07
Catalog number: 07530
Epoch time:      08170.65028065
Element set:    0206
Inclination:      101.4644 deg
RA of node:       202.0976 deg
Eccentricity:    0.0011647
Arg of perigee:   259.7821 deg
Mean anomaly:     100.1946 deg
Mean motion:   12.53573711 rev/day
Decay rate:       -2.7e-07 rev/day^2
Epoch rev:           53716
Checksum:              276

Satellite: AO-10
Catalog number: 14129
Epoch time:      08170.20164984
Element set:     519
Inclination:      025.9698 deg
RA of node:       209.8220 deg
Eccentricity:    0.5983322
Arg of perigee:   133.0020 deg
Mean anomaly:     295.8676 deg
Mean motion:   02.05869993 rev/day
Decay rate:       -5.3e-07 rev/day^2
Epoch rev:           18812
Checksum:              320

Satellite: UO-11
Catalog number: 14781
Epoch time:      08170.74101097
Element set:     698
Inclination:      098.1539 deg
RA of node:       204.7982 deg
Eccentricity:    0.0010167
Arg of perigee:   070.2226 deg
Mean anomaly:     290.0091 deg
Mean motion:   14.79649753 rev/day
Decay rate:       3.40e-06 rev/day^2
Epoch rev:           30408
Checksum:              300

Satellite: RS-15
Catalog number: 23439
Epoch time:      08170.96499230
Element set:    0151
Inclination:      064.8140 deg
RA of node:       132.1715 deg
Eccentricity:    0.0147402
Arg of perigee:   122.5002 deg
Mean anomaly:     239.0262 deg
Mean motion:   11.27552246 rev/day
Decay rate:       -3.9e-07 rev/day^2
Epoch rev:           55516
Checksum:              270

Satellite: FO-29
Catalog number: 24278
Epoch time:      08170.82235687
Element set:    0808
Inclination:      098.5870 deg
RA of node:       086.8990 deg
Eccentricity:    0.0350317
Arg of perigee:   211.2188 deg
Mean anomaly:     146.7718 deg
Mean motion:   13.52937899 rev/day
Decay rate:       -1.9e-07 rev/day^2
Epoch rev:           58461
Checksum:              362

Satellite: SO-33
Catalog number: 25509
Epoch time:      08171.63725146
Element set:     222
Inclination:      031.4322 deg
RA of node:       302.4948 deg
Eccentricity:    0.0354263
Arg of perigee:   048.6392 deg
Mean anomaly:     314.4145 deg
Mean motion:   14.28216504 rev/day
Decay rate:       1.08e-06 rev/day^2
Epoch rev:           50396
Checksum:              281

Satellite: AO-40
Catalog number: 26609
Epoch time:      08171.19788136
Element set:      80
Inclination:      007.5896 deg
RA of node:       076.8086 deg
Eccentricity:    0.7915974
Arg of perigee:   092.8833 deg
Mean anomaly:     348.8257 deg
Mean motion:   01.25584887 rev/day
Decay rate:      -1.01e-06 rev/day^2
Epoch rev:            3506
Checksum:              352

Satellite: VO-52
Catalog number: 28650
Epoch time:      08170.82469489
Element set:     959
Inclination:      097.7899 deg
RA of node:       237.3909 deg
Eccentricity:    0.0028165
Arg of perigee:   133.8628 deg
Mean anomaly:     226.4931 deg
Mean motion:   14.81475284 rev/day
Decay rate:       3.83e-06 rev/day^2
Epoch rev:           16884
Checksum:              374

Satellite: PO-63
Catalog number: 29712
Epoch time:      08171.72532007
Element set:     547
Inclination:      097.8749 deg
RA of node:       229.8644 deg
Eccentricity:    0.0014840
Arg of perigee:   018.3634 deg
Mean anomaly:     341.8114 deg
Mean motion:   14.80186465 rev/day
Decay rate:       4.93e-06 rev/day^2
Epoch rev:            7784
Checksum:              327

/EX
SB KEPS @ AMSAT  $ORB08171.D
Orbital Elements  08171.MICROS

HR AMSAT ORBITAL ELEMENTS FOR THE MICROSATS
FROM WA5QGD FORT WORTH,TX June 19, 2008
Send Subscribe/unsubscribe to KEPS at 
http://www.amsat.org/mailman/listinfo/keps
BID: ORB08171.D
TO ALL RADIO AMATEURS BT

Satellite: AO-16
Catalog number: 20439
Epoch time:      08171.58661013
Element set:     348
Inclination:      098.2296 deg
RA of node:       151.5261 deg
Eccentricity:    0.0010941
Arg of perigee:   164.6107 deg
Mean anomaly:     195.5417 deg
Mean motion:   14.31796309 rev/day
Decay rate:        1.2e-07 rev/day^2
Epoch rev:           96126
Checksum:              297

Satellite: LO-19
Catalog number: 20442
Epoch time:      08170.65532559
Element set:     275
Inclination:      098.1996 deg
RA of node:       159.1742 deg
Eccentricity:    0.0012057
Arg of perigee:   165.7696 deg
Mean anomaly:     194.3835 deg
Mean motion:   14.32034595 rev/day
Decay rate:        4.0e-07 rev/day^2
Epoch rev:           96128
Checksum:              328

Satellite: AO-27
Catalog number: 22825
Epoch time:      08170.60084391
Element set:    0997
Inclination:      098.3842 deg
RA of node:       130.5693 deg
Eccentricity:    0.0007564
Arg of perigee:   255.3075 deg
Mean anomaly:     104.7266 deg
Mean motion:   14.29241144 rev/day
Decay rate:        7.0e-08 rev/day^2
Epoch rev:           76797
Checksum:              323

Satellite: IO-26
Catalog number: 22826
Epoch time:      08170.93462441
Element set:    0703
Inclination:      098.3761 deg
RA of node:       131.7991 deg
Eccentricity:    0.0008031
Arg of perigee:   251.9216 deg
Mean anomaly:     108.1111 deg
Mean motion:   14.29490142 rev/day
Decay rate:        4.0e-08 rev/day^2
Epoch rev:           76811
Checksum:              278

Satellite: PO-28
Catalog number: 22829
Epoch time:      08171.41001182
Element set:     972
Inclination:      098.3646 deg
RA of node:       133.3607 deg
Eccentricity:    0.0009001
Arg of perigee:   219.6067 deg
Mean anomaly:     140.4469 deg
Mean motion:   14.30191485 rev/day
Decay rate:        2.9e-07 rev/day^2
Epoch rev:           76844
Checksum:              300

Satellite: GO-32
Catalog number: 25397
Epoch time:      08170.65730674
Element set:    0627
Inclination:      098.3637 deg
RA of node:       205.7473 deg
Eccentricity:    0.0000584
Arg of perigee:   184.9562 deg
Mean anomaly:     175.1619 deg
Mean motion:   14.23144066 rev/day
Decay rate:       -9.6e-07 rev/day^2
Epoch rev:           51642
Checksum:              322

Satellite: NO-44
Catalog number: 26931
Epoch time:      08171.59450803
Element set:     906
Inclination:      067.0536 deg
RA of node:       278.4535 deg
Eccentricity:    0.0006887
Arg of perigee:   272.7489 deg
Mean anomaly:     087.2820 deg
Mean motion:   14.29525820 rev/day
Decay rate:        7.3e-07 rev/day^2
Epoch rev:           35075
Checksum:              330

Satellite: SO-50
Catalog number: 27607
Epoch time:      08171.72513984
Element set:     631
Inclination:      064.5593 deg
RA of node:       045.9327 deg
Eccentricity:    0.0085807
Arg of perigee:   279.0917 deg
Mean anomaly:     080.0462 deg
Mean motion:   14.71362918 rev/day
Decay rate:       -2.5e-07 rev/day^2
Epoch rev:           29534
Checksum:              322

Satellite: CO-55
Catalog number: 27844
Epoch time:      08171.54976444
Element set:     331
Inclination:      098.7144 deg
RA of node:       179.7831 deg
Eccentricity:    0.0010776
Arg of perigee:   106.2094 deg
Mean anomaly:     254.0283 deg
Mean motion:   14.20584481 rev/day
Decay rate:        4.4e-07 rev/day^2
Epoch rev:           25777
Checksum:              322

Satellite: CO-57
Catalog number: 27848
Epoch time:      08170.56197209
Element set:    0283
Inclination:      098.7156 deg
RA of node:       177.9053 deg
Eccentricity:    0.0010520
Arg of perigee:   112.2502 deg
Mean anomaly:     247.9803 deg
Mean motion:   14.20392734 rev/day
Decay rate:        2.5e-07 rev/day^2
Epoch rev:           25760
Checksum:              304

Satellite: AO-51
Catalog number: 28375
Epoch time:      08170.57685690
Element set:     127
Inclination:      098.0704 deg
RA of node:       195.0695 deg
Eccentricity:    0.0083914
Arg of perigee:   147.8771 deg
Mean anomaly:     212.7574 deg
Mean motion:   14.40611176 rev/day
Decay rate:        1.4e-07 rev/day^2
Epoch rev:           20860
Checksum:              317

Satellite: CO-56
Catalog number: 28941
Epoch time:      08171.76981856
Element set:     146
Inclination:      098.1087 deg
RA of node:       282.8247 deg
Eccentricity:    0.0164992
Arg of perigee:   032.1173 deg
Mean anomaly:     328.9872 deg
Mean motion:   15.57451082 rev/day
Decay rate:     2.3581e-04 rev/day^2
Epoch rev:           13044
Checksum:              343

Satellite: CP4
Catalog number: 31122
Epoch time:      08171.15617614
Element set:     366
Inclination:      098.0426 deg
RA of node:       236.6765 deg
Eccentricity:    0.0084463
Arg of perigee:   323.4296 deg
Mean anomaly:     036.1125 deg
Mean motion:   14.55134289 rev/day
Decay rate:       5.49e-06 rev/day^2
Epoch rev:            6236
Checksum:              298

Satellite: CP3
Catalog number: 31128
Epoch time:      08170.64440964
Element set:    0359
Inclination:      098.0384 deg
RA of node:       234.0202 deg
Eccentricity:    0.0102374
Arg of perigee:   330.9803 deg
Mean anomaly:     028.5749 deg
Mean motion:   14.51953201 rev/day
Decay rate:       -4.8e-07 rev/day^2
Epoch rev:           06214
Checksum:              278

/EX
SB KEPS @ AMSAT  $ORB08171.W
Orbital Elements  08171.WEATHER

HR AMSAT ORBITAL ELEMENTS FOR WEATHER SATELLITES
FROM WA5QGD FORT WORTH,TX June 19, 2008
Send Subscribe/unsubscribe to KEPS at 
http://www.amsat.org/mailman/listinfo/keps
BID: ORB08171.W
TO ALL RADIO AMATEURS BT

Satellite: NOAA-10
Catalog number: 16969
Epoch time:      08171.18750013
Element set:     164
Inclination:      098.7203 deg
RA of node:       193.1530 deg
Eccentricity:    0.0012259
Arg of perigee:   171.3654 deg
Mean anomaly:     188.7741 deg
Mean motion:   14.27361508 rev/day
Decay rate:      -1.16e-06 rev/day^2
Epoch rev:           13172
Checksum:              288

